GEFSSE_500_meanwind_294.txt.gz
Wind_Speed
7 6 6 5 5 5 4 4 3 3 3 3 3 3 3 3 3 4 5 5 4 4 4 5 5 6 7 8 8 8 9 8 7 7 7 7 7 7 7 7 8 7 7
7 7 7 6 6 5 5 5 4 4 3 3 3 3 3 3 4 4 4 4 4 4 4 5 6 7 8 8 8 8 8 8 7 6 6 7 7 7 7 7 8 7 7
8 7 7 7 6 6 6 5 5 5 4 3 3 3 4 4 4 3 3 4 4 4 4 5 6 7 7 8 7 8 7 7 6 6 6 6 6 7 8 8 7 6 6
8 7 7 7 6 6 6 6 6 6 6 5 4 4 4 4 4 4 4 4 4 4 4 4 6 6 7 7 6 6 7 7 6 6 6 6 6 6 7 7 6 6 6
8 7 8 7 6 6 7 7 7 7 6 6 5 4 4 4 4 4 4 4 4 4 4 4 6 6 5 4 5 6 7 6 7 7 7 6 6 5 5 5 6 6 7
8 8 8 7 7 7 8 7 7 7 6 6 5 4 4 4 4 4 4 3 3 4 4 4 5 5 4 4 4 5 5 5 5 6 6 5 4 4 4 5 6 7 7
9 8 7 8 8 8 7 7 6 6 6 6 5 5 4 5 5 4 4 4 4 4 3 4 4 4 4 4 5 4 4 4 4 5 4 4 3 4 4 4 5 5 6
9 9 9 8 8 8 7 7 6 6 6 6 5 5 6 6 6 5 5 4 4 4 3 3 4 4 4 4 4 4 3 3 4 4 3 3 3 3 3 4 4 5 6
10 10 10 9 8 7 7 7 6 6 6 6 6 6 7 7 6 6 5 4 3 4 4 4 4 3 3 3 3 3 3 2 2 2 2 2 2 3 3 3 4 4 5
9 9 9 9 9 8 7 7 6 7 7 7 6 6 7 7 6 6 5 4 4 4 4 3 2 2 2 2 2 2 1 1 1 1 1 1 1 1 1 2 3 3 4
10 10 10 9 9 9 8 8 8 8 7 7 7 6 7 7 7 6 6 5 4 4 4 3 2 2 2 2 1 2 2 1 1 1 1 1 0 1 1 2 3 3 3
10 10 11 10 9 10 10 10 10 9 8 7 7 7 7 7 7 6 6 5 5 4 4 4 3 3 2 2 1 1 1 2 2 2 2 1 0 1 2 3 3 3 3
10 10 10 10 10 9 10 11 11 10 10 9 8 8 7 7 7 6 6 5 5 5 4 4 5 4 3 2 2 1 1 1 1 1 1 1 1 1 2 3 4 4 4
9 10 10 10 9 9 10 11 10 10 9 9 9 8 7 6 5 5 5 6 6 5 5 4 4 4 4 3 3 2 2 2 1 1 1 2 2 3 3 3 5 5 6
10 10 10 10 10 10 9 9 9 9 9 9 9 9 8 7 6 6 6 5 5 4 4 5 5 5 4 3 3 3 2 2 2 1 2 2 3 4 4 5 5 6 6
10 10 10 9 9 9 9 9 8 8 8 8 8 8 8 7 6 6 7 6 5 5 5 5 5 5 5 4 3 2 3 2 2 2 3 3 4 5 5 6 7 7 7
11 10 10 10 9 9 8 8 8 7 7 8 8 8 8 7 7 6 6 6 6 5 5 5 5 5 4 3 3 3 3 3 4 4 4 5 6 6 7 7 8 8 8
10 10 10 9 8 9 9 8 8 7 7 7 7 8 8 8 7 6 6 6 6 5 5 6 5 5 4 4 4 4 4 4 5 5 5 6 6 7 7 7 8 8 8
11 9 9 9 9 8 8 8 7 6 6 7 7 7 7 7 7 6 5 5 5 5 5 5 5 5 5 4 4 5 5 5 5 5 6 6 6 7 7 8 8 8 8
11 10 9 8 8 7 7 7 7 6 6 6 6 6 6 6 5 5 4 5 5 5 5 5 5 5 6 5 5 6 6 6 6 6 6 6 6 7 7 8 8 9 9
10 10 9 9 8 8 7 7 7 7 7 6 6 6 6 5 5 5 5 6 6 6 6 6 6 6 7 6 6 6 7 7 6 6 6 7 7 7 8 9 9 10 10
8 8 8 9 8 7 7 7 7 7 7 7 7 7 6 6 5 5 5 5 6 6 7 7 7 7 7 7 7 8 7 7 7 7 7 7 8 8 9 9 10 10 11
7 7 7 7 7 6 6 7 7 7 6 7 7 7 7 6 6 6 6 6 6 7 7 8 8 8 8 8 8 8 7 7 7 7 8 8 8 9 10 11 11 11 11
7 7 7 7 6 6 6 6 6 5 6 6 6 6 6 7 7 8 8 7 7 8 8 8 8 8 8 8 8 8 8 8 7 7 8 9 10 11 11 12 12 13 13
6 6 7 6 6 5 5 5 6 5 6 6 5 6 6 7 8 9 9 8 8 8 9 9 8 9 8 8 8 8 9 9 9 9 9 10 11 12 12 13 14 14 14
5 5 6 6 6 5 5 5 5 5 6 6 6 5 6 7 8 8 9 8 9 9 9 10 10 10 9 9 9 9 9 9 9 9 10 10 11 12 13 13 14 14 15

GEFSSE_500_meanwind_300.txt.gz
Wind_Speed
6 5 6 6 6 6 6 6 6 6 5 5 5 4 4 3 2 2 3 3 3 3 3 3 3 4 5 6 8 7 7 8 8 8 8 8 7 7 8 8 8 8 8
6 6 6 7 7 7 7 6 7 7 7 6 5 5 4 3 4 4 4 4 4 4 3 2 2 2 4 6 8 8 8 8 7 7 7 7 7 8 8 8 8 8 7
7 7 7 7 8 8 7 7 7 7 7 6 5 5 5 5 5 5 5 5 4 4 3 3 1 1 3 6 8 8 8 7 6 6 6 5 6 7 7 7 7 7 7
8 8 7 8 8 8 8 8 8 7 6 6 6 5 6 6 5 5 5 4 4 3 3 2 1 1 3 5 6 7 7 6 5 4 5 5 6 7 6 6 6 6 6
8 8 8 8 8 8 8 8 8 7 7 6 6 6 6 6 5 5 4 4 4 4 4 3 2 2 3 4 5 6 6 6 5 4 5 6 6 6 6 5 6 6 6
8 9 9 9 8 8 8 8 7 7 7 6 6 5 5 6 5 5 4 4 4 4 3 2 3 3 3 5 5 5 5 5 4 4 4 5 5 5 5 5 6 7 7
9 9 10 9 8 8 7 7 7 7 7 6 6 5 5 6 5 5 5 5 5 4 3 3 3 4 4 4 3 3 3 3 3 4 3 3 4 4 4 5 6 7 6
8 9 9 9 8 8 8 7 7 7 7 6 6 6 5 6 6 6 5 5 4 3 3 3 3 4 4 3 3 3 3 2 3 3 3 3 3 3 3 3 5 5 6
9 9 9 8 9 8 8 7 7 7 7 7 7 6 6 6 6 6 5 5 5 4 4 3 3 3 4 4 3 3 3 3 2 2 2 2 2 3 3 4 4 5 6
10 9 9 9 9 8 8 7 7 7 7 7 7 7 7 6 6 6 6 6 5 5 5 4 3 4 4 4 3 2 2 3 2 2 2 1 2 2 2 3 3 3 4
9 10 10 9 9 8 9 8 8 8 7 8 8 7 7 7 7 6 6 6 6 5 5 5 4 4 4 4 3 2 2 2 2 2 1 1 1 2 2 2 2 3 4
10 10 10 10 10 9 9 8 8 8 8 8 7 8 7 7 7 6 6 6 7 6 5 5 5 4 4 3 4 2 2 2 2 1 1 0 1 1 1 2 2 3 4
10 10 10 10 10 10 9 9 8 8 8 8 7 8 8 7 7 7 7 7 7 6 5 5 5 4 4 3 3 4 3 2 2 1 0 1 1 2 2 3 4 4 4
10 10 9 10 9 9 9 9 9 8 8 8 7 7 7 7 7 8 7 7 6 5 5 4 4 4 4 4 4 4 3 3 2 2 1 2 2 3 4 4 5 5 5
9 9 9 8 8 8 8 8 7 8 8 7 8 8 7 6 7 7 7 6 5 4 4 3 3 3 4 3 3 3 3 3 3 2 2 2 3 4 4 5 6 6 7
9 9 9 8 8 8 8 7 7 7 7 7 7 7 7 6 6 6 6 5 5 4 4 4 5 4 3 3 3 3 3 3 3 3 3 4 4 5 5 6 7 8 8
9 9 9 8 8 8 7 7 7 7 7 7 6 6 6 6 5 5 5 5 5 5 5 4 4 4 4 4 4 4 4 4 4 5 5 6 6 7 7 8 8 8 9
9 9 8 8 8 7 7 7 7 6 5 5 6 6 6 6 6 5 5 5 5 4 4 4 4 4 4 4 4 4 5 5 6 6 6 7 7 8 8 8 8 8 8
8 8 8 8 7 7 6 7 7 6 5 4 4 5 5 6 6 6 5 5 5 5 4 4 5 5 5 5 5 5 6 6 7 7 7 7 8 8 8 9 9 9 9
7 7 7 7 7 6 6 7 7 6 5 5 5 4 4 5 5 5 6 5 5 5 5 5 5 5 5 6 6 6 7 7 8 8 8 8 8 8 9 9 10 10 11
7 6 6 6 6 7 6 6 6 6 6 5 5 5 4 4 5 5 5 5 5 6 6 6 6 6 6 6 6 7 8 8 8 8 9 9 9 9 10 10 11 11 12
6 5 5 5 6 6 6 6 6 5 5 5 5 5 5 5 5 6 6 6 6 6 6 7 7 7 7 7 7 8 8 8 8 9 10 10 10 11 11 12 12 12 13
5 5 4 4 5 4 5 5 5 5 5 5 5 5 5 5 6 6 6 7 7 7 7 8 8 8 8 8 8 8 8 8 9 10 11 11 12 12 12 12 13 13 13
5 5 4 4 4 4 4 4 4 4 5 5 5 5 5 5 6 6 7 7 7 8 8 9 9 9 9 9 9 9 10 10 10 10 11 11 12 13 13 14 14 14 14
4 4 4 4 4 4 4 4 4 5 5 5 5 5 5 6 6 7 7 8 8 8 8 9 10 10 11 11 11 10 11 11 12 12 11 11 12 13 13 14 14 14 14
4 3 3 3 3 3 3 4 4 5 5 5 5 5 6 6 6 7 8 9 9 9 10 10 11 11 11 11 11 11 12 12 13 13 13 13 14 14 14 14 14 14 15

GEFSSE_500_meanwind_306.txt.gz
Wind_Speed
7 7 6 6 5 5 6 6 5 5 5 5 5 6 6 5 5 6 6 5 5 5 6 6 6 8 7 7 8 8 7 7 7 7 7 8 8 8 8 9 8 8 9
8 7 7 6 5 5 5 5 5 5 5 5 6 6 5 5 5 5 6 6 5 5 5 5 5 7 7 7 8 8 8 8 8 7 7 7 8 8 8 7 8 8 8
8 8 7 6 6 6 6 5 5 6 6 6 6 5 5 5 5 6 6 6 5 4 4 4 5 6 7 7 8 8 8 8 8 8 8 7 8 8 8 7 8 8 8
8 7 7 6 6 6 6 5 5 6 6 6 5 6 5 5 5 5 5 5 4 4 3 4 4 5 6 7 8 8 9 8 7 6 7 6 7 8 8 8 8 8 8
8 7 7 7 7 6 6 6 6 6 6 5 6 6 6 5 5 5 5 5 4 3 3 3 3 4 5 6 7 8 8 7 5 4 6 6 7 8 8 7 8 7 7
8 7 7 7 7 7 7 6 6 5 5 5 5 6 6 5 5 5 5 5 4 3 3 2 2 3 3 4 5 6 6 5 4 4 5 6 7 8 8 7 8 8 8
8 7 7 7 7 7 6 6 6 5 5 5 5 5 6 6 5 4 5 5 5 3 2 2 2 3 3 5 5 6 5 4 4 4 5 5 6 7 7 7 7 8 8
7 7 6 7 7 7 6 6 6 6 5 5 5 5 5 5 5 5 5 5 4 3 2 3 4 4 3 3 4 4 3 3 4 4 4 4 4 6 6 7 7 7 7
8 7 7 6 6 6 6 6 6 6 6 6 5 5 5 5 5 5 5 4 4 4 4 4 4 4 3 2 3 3 3 3 3 3 3 3 4 5 5 6 7 7 7
8 7 7 7 7 7 6 6 6 6 6 6 6 5 5 5 5 5 5 5 5 5 5 4 3 3 3 2 3 3 3 3 2 2 3 3 3 3 4 5 5 5 6
7 7 7 7 7 7 7 7 6 5 5 6 6 5 5 5 5 5 5 5 5 5 4 4 4 4 3 3 4 4 2 2 1 2 2 3 3 2 3 3 4 4 5
8 8 7 7 7 7 7 7 6 6 6 5 5 5 5 5 5 6 6 5 4 4 3 3 3 3 3 3 3 3 2 1 1 1 2 2 3 2 3 3 3 4 4
7 7 7 7 7 7 7 7 7 6 6 5 6 6 6 5 5 6 5 5 4 3 3 3 2 2 3 3 2 2 2 1 1 0 1 1 2 2 3 3 3 4 4
7 7 8 8 7 7 6 6 6 7 6 6 6 7 7 6 6 5 4 4 3 4 3 3 3 3 3 3 3 2 1 2 1 1 2 2 2 3 3 3 4 5 5
7 7 7 7 7 7 7 6 6 5 5 5 5 7 6 6 5 5 4 4 4 4 4 3 2 2 2 2 2 2 2 2 2 2 2 2 3 3 4 4 5 6 7
7 7 6 6 6 6 5 5 6 5 5 5 5 6 5 5 5 5 4 4 4 4 3 2 2 2 3 3 2 2 2 2 2 3 3 3 3 4 5 5 6 7 8
7 6 6 6 6 5 5 5 5 4 5 5 5 6 5 5 5 3 3 3 3 3 2 2 3 3 3 3 3 2 3 3 3 4 4 4 4 5 6 6 7 8 8
7 6 6 6 6 6 5 5 5 4 4 4 5 5 5 5 5 4 3 2 2 2 2 2 3 3 3 3 3 4 4 4 5 5 5 5 6 6 6 7 7 7 8
6 6 6 6 6 6 6 5 5 4 4 4 4 4 5 5 5 5 4 4 3 3 3 2 2 3 3 4 5 5 5 6 6 7 7 7 7 7 7 7 8 9 9
6 5 5 6 6 5 5 5 5 5 5 5 4 4 5 5 5 4 4 4 4 3 3 3 3 3 4 5 6 7 7 7 7 8 8 9 9 8 9 9 9 10 11
6 5 5 5 5 5 5 5 5 6 5 5 5 4 5 5 5 4 5 5 4 3 3 3 4 4 5 6 7 7 8 8 8 8 9 9 10 10 10 10 10 11 11
5 5 4 4 4 4 4 5 5 5 5 5 5 5 5 5 5 5 5 5 5 4 4 5 5 6 6 7 7 8 8 8 8 9 9 10 10 11 11 11 11 11 12
5 4 4 3 3 4 4 4 4 5 5 5 5 5 5 5 5 5 5 5 5 5 5 6 6 6 7 8 8 9 9 9 9 9 10 10 11 12 12 13 13 13 13
4 4 4 3 3 3 3 3 4 4 4 4 4 5 5 5 4 4 5 5 5 5 6 6 7 7 8 8 9 9 10 9 9 10 10 11 11 12 12 13 13 14 14
4 4 3 3 2 1 2 3 3 4 4 4 4 5 5 5 5 5 5 6 6 6 7 7 8 8 9 9 9 10 10 10 10 11 11 11 12 13 13 14 14 15 15
4 4 4 3 3 2 2 2 3 4 4 4 5 6 6 6 6 6 6 7 7 7 8 9 9 10 10 11 11 11 11 11 11 12 12 12 13 14 15 15 15 16 17

GEFSSE_500_meanwind_312.txt.gz
Wind_Speed
4 4 4 3 2 1 1 1 1 1 1 2 2 2 2 2 2 3 3 5 6 7 7 7 8 7 7 7 6 6 7 7 7 7 7 6 5 6 7 8 8 8 7
4 4 4 4 3 2 2 1 0 1 0 1 2 1 1 2 2 3 3 3 4 4 5 5 6 7 7 7 7 8 8 9 8 7 7 7 6 6 7 8 8 8 8
4 4 4 5 4 3 2 2 1 1 1 1 1 1 0 1 2 3 3 3 3 3 3 4 5 6 6 7 8 8 9 8 8 8 7 7 6 6 6 7 7 7 7
5 5 5 5 5 4 3 2 2 2 1 2 1 1 0 0 1 2 3 3 3 2 3 4 4 4 5 6 7 8 8 7 7 7 7 7 7 6 6 7 7 6 7
6 7 6 5 5 5 4 3 2 2 2 2 1 0 0 1 1 1 1 2 2 2 3 3 3 3 4 5 5 6 7 6 7 6 6 7 7 7 6 7 7 7 6
7 7 7 6 6 6 5 4 3 3 3 3 2 1 1 1 2 2 2 2 2 2 2 1 2 2 3 4 5 5 5 5 6 6 6 6 6 7 7 7 7 7 6
7 7 8 7 6 6 5 4 4 4 3 3 3 3 2 1 2 2 2 2 1 2 2 1 1 2 2 3 4 4 4 4 5 5 5 4 4 6 6 6 6 7 6
7 8 8 7 7 6 6 5 4 4 3 3 4 4 4 3 2 1 1 1 1 1 0 1 1 2 2 3 2 3 3 3 3 2 3 2 2 4 5 6 6 6 5
7 8 8 8 7 6 6 5 5 4 4 4 4 4 5 4 3 1 1 0 1 1 1 1 2 1 2 2 2 3 2 2 1 2 1 1 1 3 4 4 5 5 5
7 7 7 7 8 7 6 5 5 5 5 4 4 5 4 4 3 2 2 1 1 1 1 1 1 2 2 1 1 2 1 1 1 0 1 1 1 2 3 3 4 3 3
8 7 7 8 8 7 7 6 6 6 6 5 4 4 5 4 4 3 3 1 1 1 1 2 2 2 2 2 1 1 1 1 0 1 1 1 1 2 2 2 2 3 3
8 8 8 8 8 8 7 7 7 6 6 6 5 4 5 5 5 4 3 3 3 2 2 3 2 2 2 2 2 1 1 0 1 1 1 2 1 1 1 1 2 3 3
9 8 8 8 8 8 7 7 8 8 7 7 7 7 6 5 5 5 5 4 4 4 3 3 3 3 2 2 1 1 2 1 2 2 2 3 2 1 1 2 2 3 4
9 9 9 8 8 8 7 7 8 8 7 6 7 7 6 5 5 5 5 4 4 4 4 3 4 3 2 2 1 2 3 3 3 3 3 3 3 3 2 1 2 3 4
9 9 9 9 8 8 8 7 7 7 7 6 7 6 6 5 4 5 4 4 3 3 3 3 2 2 3 3 3 3 3 4 4 4 3 3 3 3 3 4 3 4 5
10 9 8 8 8 8 8 8 7 7 7 7 6 6 6 6 5 4 4 4 3 2 2 2 2 3 4 4 4 5 5 5 4 4 4 5 5 4 4 4 4 4 5
10 9 8 8 8 7 8 8 8 8 8 8 7 7 6 5 5 4 3 3 2 2 4 4 5 4 5 5 5 5 5 5 4 5 5 6 6 6 6 5 5 5 6
10 10 9 9 8 8 8 8 8 8 9 8 7 7 6 5 5 5 4 4 5 3 4 6 5 5 5 5 5 5 5 5 6 6 6 7 7 7 7 6 6 6 7
11 10 9 9 8 8 8 8 9 8 8 9 8 8 8 8 7 6 6 6 6 6 6 6 6 6 6 6 6 6 6 7 7 7 7 7 7 7 7 7 7 8 8
10 10 9 9 8 8 8 8 8 8 8 8 8 8 8 8 8 8 7 7 6 6 7 7 6 6 6 6 7 7 8 8 8 7 7 8 8 8 8 9 8 9 9
10 10 9 8 8 8 8 8 8 8 8 8 8 8 8 8 8 8 8 7 7 6 7 8 7 8 8 8 7 8 8 8 8 8 8 9 9 9 9 10 9 10 10
10 9 9 8 8 8 8 8 7 8 8 8 9 8 8 8 8 8 8 7 7 7 8 8 8 8 8 8 8 8 8 8 8 9 9 9 9 10 10 10 10 10 11
10 9 9 8 8 8 8 8 7 8 8 8 8 8 8 8 8 8 8 8 8 8 8 8 8 8 8 9 9 9 9 9 9 9 10 10 10 10 11 11 11 11 12
9 9 9 8 8 8 8 7 8 8 8 8 8 8 8 8 8 9 8 8 8 9 9 8 9 10 10 10 10 11 11 11 11 11 11 11 11 12 12 12 12 13 13
9 9 9 9 9 8 8 7 8 8 8 8 8 8 8 9 9 9 9 9 10 10 10 10 10 11 11 11 11 12 12 12 12 12 12 12 12 12 13 13 13 14 14
9 9 9 9 9 9 8 8 8 8 8 9 9 8 9 9 10 10 10 11 11 11 11 11 11 12 12 12 12 12 13 13 13 14 13 14 14 13 14 14 14 15 15

GEFSSE_500_meanwind_318.txt.gz
Wind_Speed
7 6 6 6 6 5 4 3 2 2 1 1 1 1 2 3 4 5 5 5 5 6 7 8 8 9 9 8 8 7 8 8 8 9 10 9 9 8 8 10 10 10 10
8 7 7 6 6 5 5 3 3 2 2 2 1 1 1 2 3 4 5 6 5 6 7 8 8 8 8 7 7 8 9 9 9 9 9 9 9 8 9 9 10 10 10
8 8 8 6 6 6 5 4 4 3 2 2 1 1 1 1 1 3 5 5 5 5 6 6 6 7 7 7 8 8 9 9 9 9 9 8 8 9 9 9 9 10 10
8 8 8 7 6 6 5 4 4 3 2 1 1 1 1 1 1 2 2 4 4 4 5 4 5 5 7 7 8 8 9 9 9 9 9 9 9 9 10 9 9 10 9
8 8 8 8 7 6 6 4 3 3 2 1 1 1 1 1 1 2 2 3 4 4 4 4 5 5 5 6 6 7 7 8 8 9 9 9 10 10 10 9 9 9 9
9 9 9 8 8 7 6 5 3 3 2 2 1 1 1 1 1 2 2 3 4 3 3 4 4 4 4 5 6 6 7 7 8 8 8 9 9 9 8 8 8 8 8
10 9 9 8 8 8 7 6 4 3 3 3 2 1 1 0 1 2 2 3 3 3 2 3 3 3 3 4 5 5 6 6 7 6 7 8 7 7 7 8 8 8 8
10 10 9 9 8 8 8 7 6 5 4 4 3 2 2 1 0 1 2 3 2 2 2 2 2 2 3 3 3 4 4 4 5 5 5 5 6 6 6 7 7 7 7
10 10 9 9 9 8 8 8 7 6 5 5 5 4 3 2 1 1 1 1 2 2 1 1 2 3 3 3 3 4 4 3 4 4 3 4 5 5 6 6 6 7 7
10 10 10 9 9 9 8 8 7 7 6 6 6 6 6 5 4 3 2 1 1 2 1 1 2 2 1 2 3 3 4 3 2 3 3 4 4 5 5 5 5 5 6
10 10 10 10 10 9 10 9 9 7 7 7 7 7 7 6 6 5 3 2 1 2 1 1 1 1 1 1 2 2 3 3 3 2 2 2 3 4 4 4 4 5 5
11 11 10 10 10 10 10 10 10 9 8 8 8 8 8 7 7 6 5 4 3 3 2 3 3 2 2 2 2 2 2 3 2 1 1 2 2 2 2 2 4 5 5
11 11 11 10 10 10 10 10 10 9 9 9 8 8 8 8 7 7 6 5 5 4 3 3 3 3 2 2 2 2 1 1 1 0 1 0 0 1 1 2 3 4 4
11 11 11 11 11 11 11 10 10 10 9 9 8 8 9 9 8 7 7 6 6 5 5 4 3 4 3 2 1 1 1 1 1 1 1 1 0 1 1 2 2 3 3
11 11 11 11 11 12 11 10 10 9 8 8 8 8 8 7 7 7 7 6 5 5 5 4 4 3 3 1 1 1 2 1 2 2 2 1 1 1 2 2 3 3 3
12 12 11 11 11 11 11 11 10 10 9 8 8 8 7 7 6 6 6 6 5 4 4 4 4 4 3 2 2 3 3 3 2 2 2 2 2 3 3 3 4 4 4
12 12 12 12 12 11 11 11 11 10 10 9 9 9 8 8 8 7 7 6 7 5 5 5 5 3 3 2 3 4 3 3 2 2 2 3 3 4 4 4 5 5 4
11 12 12 11 11 11 11 11 11 11 10 9 9 9 9 8 8 9 8 7 7 6 5 5 4 4 4 4 4 4 3 2 2 3 3 4 3 3 4 5 5 5 5
11 11 11 11 11 11 11 11 11 10 10 10 9 9 9 9 8 8 8 7 7 6 5 6 5 5 5 5 4 3 3 3 3 3 4 4 4 4 4 5 6 7 7
11 11 11 11 11 11 10 10 10 10 10 10 10 9 9 8 7 8 7 7 7 7 6 7 6 5 5 5 5 4 4 4 4 4 5 5 5 5 6 6 8 8 8
10 10 10 10 10 11 10 10 10 10 10 10 9 10 9 8 8 8 8 8 8 7 7 7 6 5 5 5 6 5 5 5 5 6 6 5 6 6 6 8 8 8 8
10 9 9 10 10 10 10 10 9 10 10 10 9 9 9 8 8 8 8 8 8 7 8 7 6 5 5 5 5 6 6 6 6 6 6 6 6 6 6 7 8 8 8
9 9 9 9 9 9 10 10 9 9 9 10 10 8 8 8 8 8 8 9 8 8 8 8 7 7 6 6 6 6 7 7 7 7 8 7 7 7 7 8 8 9 10
8 8 8 8 8 8 8 9 8 8 9 9 10 9 8 8 8 8 8 9 8 8 9 9 8 8 8 7 8 8 8 8 9 9 8 8 9 9 9 10 10 10 11
8 8 8 8 8 7 7 7 8 8 8 9 9 9 9 8 8 8 8 8 8 8 9 10 10 10 9 9 9 9 9 9 10 9 9 10 10 10 11 11 12 12 12
7 8 8 8 7 7 7 6 7 7 8 8 9 9 9 9 9 9 8 9 9 9 10 11 11 11 10 10 10 10 10 10 10 9 10 10 11 11 12 13 13 14 14